Location: Carr Mill
(33.2054°N, 85.9439°W)
Time: 23:56:09
(UTC+00:00)

NOSS 3-3 (A) - Pass Details

Date: 29 October 2020
Orbit: 826 x 1387 km, 63.4° (Epoch: 22 November)

Event Time Altitude Azimuth Distance (km) Brightness Sun altitude
Rises 23:21:01 0° 204° (SSW) 3,353 7.4 -6.2°
Reaches altitude 10° 23:23:23 10° 202° (SSW) 2,443 6.6 -6.7°
Maximum altitude 23:28:57 76° 118° (ESE) 911 3.8 -7.8°
Drops below altitude 10° 23:35:08 10° 33° (NNE) 2,693 5.9 -9.1°
Sets 23:37:51 0° 32° (NNE) 3,723 6.6 -9.7°
